Time,TemperatureF,DewpointF,PressureIn,WindDirection,WindDirectionDegrees,WindSpeedMPH,WindSpeedGustMPH,Humidity,HourlyPrecipIn,Conditions,Clouds,dailyrainin,SoftwareType,DateUTC
2013-08-26 00:00:00,64.6,58.6,29.99,West,260,0.3,3.0,76,0.00,NA,NA,-99.99,meteo_script,2013-08-26 07:00:00,
2013-08-26 00:05:00,64.3,58.6,29.99,West,271,1.3,5.0,77,0.00,NA,NA,-99.99,meteo_script,2013-08-26 07:05:00,
2013-08-26 00:10:00,64.2,58.6,29.98,North,0,1.0,1.0,77,0.00,NA,NA,-99.99,meteo_script,2013-08-26 07:10:00,
2013-08-26 00:15:00,64.5,59.1,29.98,North,0,0.0,0.0,78,0.00,NA,NA,-99.99,meteo_script,2013-08-26 07:15:00,
2013-08-26 00:20:00,65.0,59.3,29.98,North,0,0.0,0.0,77,0.00,NA,NA,-99.99,meteo_script,2013-08-26 07:20:00,
2013-08-26 00:25:00,65.0,59.1,29.98,North,0,0.0,0.0,76,0.00,NA,NA,-99.99,meteo_script,2013-08-26 07:25:00,
2013-08-26 00:30:00,64.8,59.1,29.98,North,0,0.0,0.0,77,0.00,NA,NA,-99.99,meteo_script,2013-08-26 07:30:00,
2013-08-26 00:35:00,64.6,58.9,29.98,North,0,0.0,0.0,77,0.00,NA,NA,-99.99,meteo_script,2013-08-26 07:35:00,
2013-08-26 00:40:00,64.5,58.8,29.98,North,0,0.0,0.0,77,0.00,NA,NA,-99.99,meteo_script,2013-08-26 07:40:00,
2013-08-26 00:45:00,64.3,58.6,29.98,North,0,0.0,0.0,77,0.00,NA,NA,-99.99,meteo_script,2013-08-26 07:45:00,
2013-08-26 00:50:00,64.5,59.2,29.98,North,0,0.0,0.0,78,0.00,NA,NA,-99.99,meteo_script,2013-08-26 07:50:00,
2013-08-26 00:55:00,65.3,60.0,29.99,North,0,0.0,0.0,78,0.00,NA,NA,-99.99,meteo_script,2013-08-26 07:55:00,
2013-08-26 01:00:00,65.9,60.1,29.98,North,0,0.0,0.0,77,0.00,NA,NA,-99.99,meteo_script,2013-08-26 08:00:00,
2013-08-26 01:05:00,65.4,59.4,29.98,North,0,0.0,0.0,76,0.00,NA,NA,-99.99,meteo_script,2013-08-26 08:05:00,
2013-08-26 01:10:00,65.2,59.2,29.98,North,0,0.0,0.0,76,0.00,NA,NA,-99.99,meteo_script,2013-08-26 08:10:00,
2013-08-26 01:15:00,64.9,58.9,29.98,WNW,287,0.2,2.0,76,0.00,NA,NA,-99.99,meteo_script,2013-08-26 08:15:00,
2013-08-26 01:20:00,64.6,58.6,29.98,North,0,0.5,0.5,76,0.00,NA,NA,-99.99,meteo_script,2013-08-26 08:20:00,
2013-08-26 01:25:00,64.5,58.8,29.99,North,0,0.2,0.2,76,0.00,NA,NA,-99.99,meteo_script,2013-08-26 08:25:00,
2013-08-26 01:30:00,64.7,59.1,29.99,North,0,0.0,0.0,77,0.00,NA,NA,-99.99,meteo_script,2013-08-26 08:30:00,
2013-08-26 01:35:00,65.3,60.0,29.99,North,0,0.0,0.0,78,0.00,NA,NA,-99.99,meteo_script,2013-08-26 08:35:00,
2013-08-26 01:40:00,65.7,60.0,29.98,North,0,0.0,0.0,77,0.00,NA,NA,-99.99,meteo_script,2013-08-26 08:40:00,
2013-08-26 01:45:00,65.6,59.6,29.98,North,0,0.0,0.0,76,0.00,NA,NA,-99.99,meteo_script,2013-08-26 08:45:00,
2013-08-26 01:50:00,65.5,59.3,29.98,North,0,0.0,0.0,75,0.00,NA,NA,-99.99,meteo_script,2013-08-26 08:50:00,
2013-08-26 01:55:00,65.1,59.1,29.98,North,0,0.0,0.0,76,0.00,NA,NA,-99.99,meteo_script,2013-08-26 08:55:00,
2013-08-26 02:00:00,64.8,58.8,29.98,North,0,0.0,0.0,76,0.00,NA,NA,-99.99,meteo_script,2013-08-26 09:00:00,
2013-08-26 02:05:00,64.5,58.8,29.98,North,0,0.0,0.0,77,0.00,NA,NA,-99.99,meteo_script,2013-08-26 09:05:00,
2013-08-26 02:10:00,64.4,59.0,29.98,North,0,0.0,0.0,78,0.00,NA,NA,-99.99,meteo_script,2013-08-26 09:10:00,
2013-08-26 02:15:00,64.7,59.5,29.98,North,0,0.0,0.0,79,0.00,NA,NA,-99.99,meteo_script,2013-08-26 09:15:00,
2013-08-26 02:20:00,65.0,59.3,29.98,North,0,0.0,0.0,77,0.00,NA,NA,-99.99,meteo_script,2013-08-26 09:20:00,
2013-08-26 02:25:00,65.0,59.2,29.98,North,0,0.0,0.0,77,0.00,NA,NA,-99.99,meteo_script,2013-08-26 09:25:00,
2013-08-26 02:30:00,64.6,58.9,29.98,North,0,0.0,0.0,77,0.00,NA,NA,-99.99,meteo_script,2013-08-26 09:30:00,
2013-08-26 02:35:00,64.3,58.6,29.98,North,0,0.0,0.0,77,0.00,NA,NA,-99.99,meteo_script,2013-08-26 09:35:00,
2013-08-26 02:40:00,64.0,58.4,29.98,North,0,0.0,0.0,77,0.00,NA,NA,-99.99,meteo_script,2013-08-26 09:40:00,
2013-08-26 02:45:00,63.9,58.6,29.98,WNW,287,0.5,3.0,78,0.00,NA,NA,-99.99,meteo_script,2013-08-26 09:45:00,
2013-08-26 02:50:00,63.6,58.5,29.98,North,0,0.9,0.9,79,0.00,NA,NA,-99.99,meteo_script,2013-08-26 09:50:00,
2013-08-26 02:55:00,63.9,58.7,29.98,North,0,0.4,0.4,79,0.00,NA,NA,-99.99,meteo_script,2013-08-26 09:55:00,
2013-08-26 03:00:00,64.0,58.5,29.97,West,264,0.9,3.0,77,0.00,NA,NA,-99.99,meteo_script,2013-08-26 10:00:00,
2013-08-26 03:05:00,63.6,58.1,29.97,North,0,1.0,1.0,77,0.00,NA,NA,-99.99,meteo_script,2013-08-26 10:05:00,
2013-08-26 03:10:00,63.5,58.1,29.97,North,0,0.1,0.1,78,0.00,NA,NA,-99.99,meteo_script,2013-08-26 10:10:00,
2013-08-26 03:15:00,63.5,58.4,29.97,North,0,0.0,0.0,79,0.00,NA,NA,-99.99,meteo_script,2013-08-26 10:15:00,
2013-08-26 03:20:00,63.3,58.2,29.97,North,0,0.0,0.0,78,0.00,NA,NA,-99.99,meteo_script,2013-08-26 10:20:00,
2013-08-26 03:25:00,63.3,58.2,29.97,North,0,0.0,0.0,79,0.00,NA,NA,-99.99,meteo_script,2013-08-26 10:25:00,
2013-08-26 03:30:00,63.3,58.1,29.98,North,0,0.0,0.0,78,0.00,NA,NA,-99.99,meteo_script,2013-08-26 10:30:00,
2013-08-26 03:35:00,63.3,58.2,29.97,WNW,284,0.8,6.0,79,0.00,NA,NA,-99.99,meteo_script,2013-08-26 10:35:00,
2013-08-26 03:40:00,63.6,58.2,29.97,WNW,292,2.1,4.0,78,0.00,NA,NA,-99.99,meteo_script,2013-08-26 10:40:00,
2013-08-26 03:45:00,64.0,58.1,29.97,WNW,299,3.4,6.0,76,0.00,NA,NA,-99.99,meteo_script,2013-08-26 10:45:00,
2013-08-26 03:50:00,64.2,57.9,29.97,West,262,3.4,5.0,75,0.00,NA,NA,-99.99,meteo_script,2013-08-26 10:50:00,
2013-08-26 03:55:00,64.3,58.0,29.97,North,0,1.6,1.6,75,0.00,NA,NA,-99.99,meteo_script,2013-08-26 10:55:00,
2013-08-26 04:00:00,64.7,58.7,29.97,North,0,0.2,0.2,76,0.00,NA,NA,-99.99,meteo_script,2013-08-26 11:00:00,
2013-08-26 04:05:00,65.0,58.7,29.97,North,0,0.0,0.0,75,0.00,NA,NA,-99.99,meteo_script,2013-08-26 11:05:00,
2013-08-26 04:10:00,65.1,59.1,29.97,North,0,0.0,0.0,76,0.00,NA,NA,-99.99,meteo_script,2013-08-26 11:10:00,
2013-08-26 04:15:00,65.1,59.4,29.97,North,0,0.0,0.0,77,0.00,NA,NA,-99.99,meteo_script,2013-08-26 11:15:00,
2013-08-26 04:20:00,65.0,59.5,29.97,North,0,0.0,0.0,77,0.00,NA,NA,-99.99,meteo_script,2013-08-26 11:20:00,
2013-08-26 04:25:00,64.8,59.5,29.97,North,0,0.0,0.0,78,0.00,NA,NA,-99.99,meteo_script,2013-08-26 11:25:00,
2013-08-26 04:30:00,64.8,59.9,29.97,North,0,0.0,0.0,80,0.00,NA,NA,-99.99,meteo_script,2013-08-26 11:30:00,
2013-08-26 04:35:00,64.6,59.7,29.97,North,0,0.0,0.0,80,0.00,NA,NA,-99.99,meteo_script,2013-08-26 11:35:00,
2013-08-26 04:40:00,64.5,59.3,29.97,North,0,0.0,0.0,79,0.00,NA,NA,-99.99,meteo_script,2013-08-26 11:40:00,
2013-08-26 04:45:00,64.0,58.7,29.97,North,0,0.0,0.0,78,0.00,NA,NA,-99.99,meteo_script,2013-08-26 11:45:00,
2013-08-26 04:50:00,63.5,58.2,29.97,North,0,0.0,0.0,78,0.00,NA,NA,-99.99,meteo_script,2013-08-26 11:50:00,
2013-08-26 04:55:00,63.9,58.7,29.97,North,0,0.0,0.0,79,0.00,NA,NA,-99.99,meteo_script,2013-08-26 11:55:00,
2013-08-26 05:00:00,64.7,59.2,29.97,North,0,0.0,0.0,77,0.00,NA,NA,-99.99,meteo_script,2013-08-26 12:00:00,
2013-08-26 05:05:00,64.8,58.6,29.97,North,0,0.0,0.0,75,0.00,NA,NA,-99.99,meteo_script,2013-08-26 12:05:00,
2013-08-26 05:10:00,64.6,58.3,29.97,North,0,0.0,0.0,75,0.00,NA,NA,-99.99,meteo_script,2013-08-26 12:10:00,
2013-08-26 05:15:00,64.5,58.5,29.97,North,0,0.0,0.0,76,0.00,NA,NA,-99.99,meteo_script,2013-08-26 12:15:00,
2013-08-26 05:20:00,64.5,58.7,29.97,North,0,0.0,0.0,76,0.00,NA,NA,-99.99,meteo_script,2013-08-26 12:20:00,
2013-08-26 05:25:00,64.3,58.3,29.97,North,0,0.0,0.0,76,0.00,NA,NA,-99.99,meteo_script,2013-08-26 12:25:00,
2013-08-26 05:30:00,64.3,58.6,29.97,North,0,0.0,0.0,77,0.00,NA,NA,-99.99,meteo_script,2013-08-26 12:30:00,
2013-08-26 05:35:00,64.3,58.6,29.97,North,0,0.0,0.0,77,0.00,NA,NA,-99.99,meteo_script,2013-08-26 12:35:00,
2013-08-26 05:40:00,64.3,58.6,29.97,North,0,0.0,0.0,77,0.00,NA,NA,-99.99,meteo_script,2013-08-26 12:40:00,
2013-08-26 05:45:00,64.3,58.9,29.97,North,0,0.0,0.0,78,0.00,NA,NA,-99.99,meteo_script,2013-08-26 12:45:00,
2013-08-26 05:50:00,64.5,59.3,29.98,West,262,0.3,1.0,79,0.00,NA,NA,-99.99,meteo_script,2013-08-26 12:50:00,
2013-08-26 05:55:00,64.8,59.6,29.98,North,0,0.3,0.3,79,0.00,NA,NA,-99.99,meteo_script,2013-08-26 12:55:00,
2013-08-26 06:00:00,65.3,60.0,29.98,North,0,0.0,0.0,78,0.00,NA,NA,-99.99,meteo_script,2013-08-26 13:00:00,
2013-08-26 06:05:00,65.3,59.7,29.98,North,0,0.0,0.0,77,0.00,NA,NA,-99.99,meteo_script,2013-08-26 13:05:00,
2013-08-26 06:10:00,65.1,59.5,29.98,North,0,0.0,0.0,77,0.00,NA,NA,-99.99,meteo_script,2013-08-26 13:10:00,
2013-08-26 06:15:00,64.8,59.1,29.98,North,0,0.0,0.0,77,0.00,NA,NA,-99.99,meteo_script,2013-08-26 13:15:00,
2013-08-26 06:20:00,64.7,59.0,29.98,North,0,0.0,0.0,77,0.00,NA,NA,-99.99,meteo_script,2013-08-26 13:20:00,
2013-08-26 06:25:00,64.8,59.4,29.98,WSW,249,0.7,4.0,78,0.00,NA,NA,-99.99,meteo_script,2013-08-26 13:25:00,
2013-08-26 06:30:00,65.0,59.6,29.98,North,0,0.9,0.9,78,0.00,NA,NA,-99.99,meteo_script,2013-08-26 13:30:00,
2013-08-26 06:35:00,65.0,59.6,29.98,North,0,0.2,0.2,78,0.00,NA,NA,-99.99,meteo_script,2013-08-26 13:35:00,
2013-08-26 06:40:00,64.8,59.6,29.99,North,0,0.0,0.0,79,0.00,NA,NA,-99.99,meteo_script,2013-08-26 13:40:00,
2013-08-26 06:45:00,65.1,59.8,29.98,North,0,0.0,0.0,78,0.00,NA,NA,-99.99,meteo_script,2013-08-26 13:45:00,
2013-08-26 06:50:00,65.0,59.6,29.98,North,0,0.0,0.0,78,0.00,NA,NA,-99.99,meteo_script,2013-08-26 13:50:00,
2013-08-26 06:55:00,64.8,59.4,29.98,North,0,0.0,0.0,78,0.00,NA,NA,-99.99,meteo_script,2013-08-26 13:55:00,
2013-08-26 07:00:00,64.8,59.4,29.99,North,0,0.0,0.0,78,0.00,NA,NA,-99.99,meteo_script,2013-08-26 14:00:00,
2013-08-26 07:05:00,64.7,59.3,29.99,North,0,0.0,0.0,78,0.00,NA,NA,-99.99,meteo_script,2013-08-26 14:05:00,
2013-08-26 07:10:00,64.7,59.3,29.99,North,0,0.0,0.0,78,0.00,NA,NA,-99.99,meteo_script,2013-08-26 14:10:00,
2013-08-26 07:15:00,64.7,59.6,29.99,North,0,0.0,0.0,79,0.00,NA,NA,-99.99,meteo_script,2013-08-26 14:15:00,
2013-08-26 07:20:00,65.1,60.1,29.99,North,0,0.0,0.0,79,0.00,NA,NA,-99.99,meteo_script,2013-08-26 14:20:00,
2013-08-26 07:25:00,65.5,60.6,29.99,North,0,0.0,0.0,80,0.00,NA,NA,-99.99,meteo_script,2013-08-26 14:25:00,
2013-08-26 07:30:00,65.8,60.9,29.99,North,0,0.0,0.0,80,0.00,NA,NA,-99.99,meteo_script,2013-08-26 14:30:00,
2013-08-26 07:35:00,65.9,60.9,29.99,North,0,0.0,0.0,79,0.00,NA,NA,-99.99,meteo_script,2013-08-26 14:35:00,
2013-08-26 07:40:00,65.9,60.7,30.00,North,0,0.0,0.0,79,0.00,NA,NA,-99.99,meteo_script,2013-08-26 14:40:00,
2013-08-26 07:45:00,65.9,60.7,30.00,North,0,0.0,0.0,79,0.00,NA,NA,-99.99,meteo_script,2013-08-26 14:45:00,
2013-08-26 07:50:00,66.1,61.1,30.00,North,0,0.0,0.0,79,0.00,NA,NA,-99.99,meteo_script,2013-08-26 14:50:00,
2013-08-26 07:55:00,66.1,61.2,30.00,WSW,248,0.0,1.0,80,0.00,NA,NA,-99.99,meteo_script,2013-08-26 14:55:00,
2013-08-26 08:00:00,66.1,61.3,30.00,North,0,0.0,0.0,80,0.00,NA,NA,-99.99,meteo_script,2013-08-26 15:00:00,
2013-08-26 08:05:00,67.1,62.7,30.00,North,0,0.0,0.0,82,0.00,NA,NA,-99.99,meteo_script,2013-08-26 15:05:00,
2013-08-26 08:10:00,67.3,62.5,30.00,North,0,0.0,0.0,80,0.00,NA,NA,-99.99,meteo_script,2013-08-26 15:10:00,
2013-08-26 08:15:00,67.3,62.3,30.00,North,0,0.1,0.1,80,0.00,NA,NA,-99.99,meteo_script,2013-08-26 15:15:00,
2013-08-26 08:20:00,66.9,62.2,30.00,South,180,0.6,3.0,81,0.00,NA,NA,-99.99,meteo_script,2013-08-26 15:20:00,
2013-08-26 08:25:00,66.6,62.2,30.00,North,0,0.5,0.5,82,0.00,NA,NA,-99.99,meteo_script,2013-08-26 15:25:00,
2013-08-26 08:30:00,66.3,62.2,30.00,SSE,161,0.2,2.0,83,0.00,NA,NA,-99.99,meteo_script,2013-08-26 15:30:00,
2013-08-26 08:35:00,66.1,62.2,30.01,North,0,0.2,0.2,84,0.00,NA,NA,-99.99,meteo_script,2013-08-26 15:35:00,
2013-08-26 08:40:00,66.6,63.2,30.01,North,0,0.0,0.0,85,0.00,NA,NA,-99.99,meteo_script,2013-08-26 15:40:00,
2013-08-26 08:45:00,67.2,63.4,30.01,North,0,0.0,0.0,84,0.00,NA,NA,-99.99,meteo_script,2013-08-26 15:45:00,
2013-08-26 08:50:00,67.6,63.5,30.01,North,0,0.0,0.0,83,0.00,NA,NA,-99.99,meteo_script,2013-08-26 15:50:00,
2013-08-26 08:55:00,67.8,63.9,30.01,North,0,0.0,0.0,84,0.00,NA,NA,-99.99,meteo_script,2013-08-26 15:55:00,
2013-08-26 09:00:00,68.1,64.1,30.01,North,0,0.0,0.0,83,0.00,NA,NA,-99.99,meteo_script,2013-08-26 16:00:00,
2013-08-26 09:05:00,68.1,63.6,30.01,North,0,0.0,0.0,82,0.00,NA,NA,-99.99,meteo_script,2013-08-26 16:05:00,
2013-08-26 09:10:00,68.4,63.9,30.00,North,0,0.0,0.0,82,0.00,NA,NA,-99.99,meteo_script,2013-08-26 16:10:00,
2013-08-26 09:15:00,68.7,64.2,30.00,SSE,151,0.4,3.0,82,0.00,NA,NA,-99.99,meteo_script,2013-08-26 16:15:00,
2013-08-26 09:20:00,69.1,64.5,30.01,North,0,0.7,0.7,81,0.00,NA,NA,-99.99,meteo_script,2013-08-26 16:20:00,
2013-08-26 09:25:00,69.2,64.5,30.00,SE,128,0.6,1.0,81,0.00,NA,NA,-99.99,meteo_script,2013-08-26 16:25:00,
2013-08-26 09:30:00,69.2,64.3,30.01,ESE,112,0.7,3.0,80,0.00,NA,NA,-99.99,meteo_script,2013-08-26 16:30:00,
2013-08-26 09:35:00,69.4,64.6,30.01,ESE,107,0.5,5.0,81,0.00,NA,NA,-99.99,meteo_script,2013-08-26 16:35:00,
2013-08-26 09:40:00,69.6,64.7,30.00,East,89,0.4,3.0,80,0.00,NA,NA,-99.99,meteo_script,2013-08-26 16:40:00,
2013-08-26 09:45:00,69.8,64.6,30.00,North,0,0.3,0.3,79,0.00,NA,NA,-99.99,meteo_script,2013-08-26 16:45:00,
2013-08-26 09:50:00,69.9,64.6,30.00,East,90,0.0,1.0,79,0.00,NA,NA,-99.99,meteo_script,2013-08-26 16:50:00,
2013-08-26 09:55:00,70.2,65.1,30.01,North,0,0.0,0.0,80,0.00,NA,NA,-99.99,meteo_script,2013-08-26 16:55:00,
2013-08-26 10:00:00,70.4,65.3,30.00,North,0,0.2,0.2,80,0.00,NA,NA,-99.99,meteo_script,2013-08-26 17:00:00,
2013-08-26 10:05:00,70.9,65.6,30.01,East,96,0.5,4.0,79,0.00,NA,NA,-99.99,meteo_script,2013-08-26 17:05:00,
2013-08-26 10:10:00,70.9,65.2,30.00,East,96,0.7,3.0,78,0.00,NA,NA,-99.99,meteo_script,2013-08-26 17:10:00,
2013-08-26 10:15:00,71.3,65.6,30.01,East,95,0.4,1.0,78,0.00,NA,NA,-99.99,meteo_script,2013-08-26 17:15:00,
2013-08-26 10:20:00,71.3,65.5,30.01,North,0,0.0,0.0,77,0.00,NA,NA,-99.99,meteo_script,2013-08-26 17:20:00,
2013-08-26 10:25:00,71.6,65.8,30.01,North,0,0.0,0.0,77,0.00,NA,NA,-99.99,meteo_script,2013-08-26 17:25:00,
2013-08-26 10:30:00,71.8,65.9,30.00,SE,130,0.6,3.0,77,0.00,NA,NA,-99.99,meteo_script,2013-08-26 17:30:00,
2013-08-26 10:35:00,71.7,65.9,30.01,South,177,0.9,4.0,77,0.00,NA,NA,-99.99,meteo_script,2013-08-26 17:35:00,
2013-08-26 10:40:00,71.8,66.0,30.00,North,0,0.6,0.6,77,0.00,NA,NA,-99.99,meteo_script,2013-08-26 17:40:00,
2013-08-26 10:45:00,71.6,66.0,30.00,North,0,0.3,0.3,78,0.00,NA,NA,-99.99,meteo_script,2013-08-26 17:45:00,
2013-08-26 10:50:00,71.6,65.9,30.00,East,100,0.4,3.0,78,0.00,NA,NA,-99.99,meteo_script,2013-08-26 17:50:00,
2013-08-26 10:55:00,71.9,66.2,30.00,SE,133,0.5,5.0,78,0.00,NA,NA,-99.99,meteo_script,2013-08-26 17:55:00,
2013-08-26 11:00:00,71.9,65.8,30.00,SSE,152,0.4,2.0,76,0.00,NA,NA,-99.99,meteo_script,2013-08-26 18:00:00,
2013-08-26 11:05:00,71.9,65.9,30.00,South,179,0.7,3.0,77,0.00,NA,NA,-99.99,meteo_script,2013-08-26 18:05:00,
2013-08-26 11:10:00,72.4,66.5,30.00,East,91,1.1,5.0,77,0.00,NA,NA,-99.99,meteo_script,2013-08-26 18:10:00,
2013-08-26 11:15:00,72.8,66.4,30.01,East,95,0.8,2.0,75,0.00,NA,NA,-99.99,meteo_script,2013-08-26 18:15:00,
2013-08-26 11:20:00,73.0,66.3,30.00,North,0,0.4,0.4,75,0.00,NA,NA,-99.99,meteo_script,2013-08-26 18:20:00,
2013-08-26 11:25:00,73.5,66.5,30.00,East,83,0.4,1.0,73,0.00,NA,NA,-99.99,meteo_script,2013-08-26 18:25:00,
2013-08-26 11:30:00,73.9,66.1,30.00,East,88,0.3,4.0,71,0.00,NA,NA,-99.99,meteo_script,2013-08-26 18:30:00,
2013-08-26 11:35:00,73.3,65.8,30.00,North,0,0.7,0.7,72,0.00,NA,NA,-99.99,meteo_script,2013-08-26 18:35:00,
2013-08-26 11:40:00,73.6,66.1,30.00,North,0,0.5,0.5,72,0.00,NA,NA,-99.99,meteo_script,2013-08-26 18:40:00,
2013-08-26 11:45:00,73.6,65.9,30.00,North,0,0.2,0.2,71,0.00,NA,NA,-99.99,meteo_script,2013-08-26 18:45:00,
2013-08-26 11:50:00,73.8,66.2,30.00,East,80,0.5,5.0,72,0.00,NA,NA,-99.99,meteo_script,2013-08-26 18:50:00,
2013-08-26 11:55:00,74.1,66.4,30.00,North,0,0.5,0.5,71,0.00,NA,NA,-99.99,meteo_script,2013-08-26 18:55:00,
2013-08-26 12:00:00,74.0,66.1,30.00,North,0,0.1,0.1,71,0.00,NA,NA,-99.99,meteo_script,2013-08-26 19:00:00,
2013-08-26 12:05:00,74.5,66.3,30.00,North,0,0.1,0.1,70,0.00,NA,NA,-99.99,meteo_script,2013-08-26 19:05:00,
2013-08-26 12:10:00,74.6,65.9,30.00,ESE,111,0.9,5.0,68,0.00,NA,NA,-99.99,meteo_script,2013-08-26 19:10:00,
2013-08-26 12:15:00,74.7,66.4,30.00,North,0,1.0,1.0,70,0.00,NA,NA,-99.99,meteo_script,2013-08-26 19:15:00,
2013-08-26 12:20:00,75.0,66.4,29.99,East,96,0.4,2.0,69,0.00,NA,NA,-99.99,meteo_script,2013-08-26 19:20:00,
2013-08-26 12:25:00,75.1,66.0,29.99,East,87,0.5,3.0,67,0.00,NA,NA,-99.99,meteo_script,2013-08-26 19:25:00,
2013-08-26 12:30:00,74.7,65.5,29.98,North,0,0.3,0.3,67,0.00,NA,NA,-99.99,meteo_script,2013-08-26 19:30:00,
2013-08-26 12:35:00,74.6,65.6,29.98,SE,137,0.4,5.0,67,0.00,NA,NA,-99.99,meteo_script,2013-08-26 19:35:00,
2013-08-26 12:40:00,75.2,65.9,29.98,SSW,195,1.1,4.0,67,0.00,NA,NA,-99.99,meteo_script,2013-08-26 19:40:00,
2013-08-26 12:45:00,75.5,65.9,29.98,North,0,0.8,0.8,66,0.00,NA,NA,-99.99,meteo_script,2013-08-26 19:45:00,
2013-08-26 12:50:00,75.7,66.1,29.98,East,94,0.6,4.0,66,0.00,NA,NA,-99.99,meteo_script,2013-08-26 19:50:00,
2013-08-26 12:55:00,75.3,66.1,29.98,SE,129,0.7,1.0,67,0.00,NA,NA,-99.99,meteo_script,2013-08-26 19:55:00,
2013-08-26 13:00:00,74.6,66.1,29.98,North,0,0.4,0.4,69,0.00,NA,NA,-99.99,meteo_script,2013-08-26 20:00:00,
2013-08-26 13:05:00,74.3,66.7,29.99,East,84,0.9,4.0,72,0.00,NA,NA,-99.99,meteo_script,2013-08-26 20:05:00,
2013-08-26 13:10:00,74.0,66.4,29.99,SE,142,1.5,4.0,72,0.00,NA,NA,-99.99,meteo_script,2013-08-26 20:10:00,
2013-08-26 13:15:00,73.5,66.1,29.98,South,176,1.1,4.0,72,0.00,NA,NA,-99.99,meteo_script,2013-08-26 20:15:00,
2013-08-26 13:20:00,73.1,66.2,29.98,North,0,0.3,0.3,74,0.00,NA,NA,-99.99,meteo_script,2013-08-26 20:20:00,
2013-08-26 13:25:00,74.4,67.2,29.98,ESE,114,0.5,5.0,73,0.00,NA,NA,-99.99,meteo_script,2013-08-26 20:25:00,
2013-08-26 13:30:00,74.6,67.0,29.98,ESE,116,1.2,4.0,72,0.00,NA,NA,-99.99,meteo_script,2013-08-26 20:30:00,
2013-08-26 13:35:00,74.7,67.0,29.97,SE,124,0.9,1.0,71,0.00,NA,NA,-99.99,meteo_script,2013-08-26 20:35:00,
2013-08-26 13:40:00,74.6,67.2,29.97,East,90,0.4,4.0,72,0.00,NA,NA,-99.99,meteo_script,2013-08-26 20:40:00,
2013-08-26 13:45:00,74.5,66.9,29.97,East,83,1.2,5.0,72,0.00,NA,NA,-99.99,meteo_script,2013-08-26 20:45:00,
2013-08-26 13:50:00,74.1,67.0,29.97,East,80,1.6,1.6,73,0.00,NA,NA,-99.99,meteo_script,2013-08-26 20:50:00,
2013-08-26 13:55:00,74.7,67.2,29.97,East,87,1.6,5.0,72,0.00,NA,NA,-99.99,meteo_script,2013-08-26 20:55:00,
2013-08-26 14:00:00,74.8,67.2,29.96,ESE,108,1.1,1.1,72,0.00,NA,NA,-99.99,meteo_script,2013-08-26 21:00:00,
2013-08-26 14:05:00,75.2,67.6,29.96,ESE,113,0.8,1.0,72,0.00,NA,NA,-99.99,meteo_script,2013-08-26 21:05:00,
2013-08-26 14:10:00,75.5,67.3,29.96,ENE,73,1.2,5.0,70,0.00,NA,NA,-99.99,meteo_script,2013-08-26 21:10:00,
2013-08-26 14:15:00,75.5,67.5,29.96,East,97,1.0,4.0,70,0.00,NA,NA,-99.99,meteo_script,2013-08-26 21:15:00,
2013-08-26 14:20:00,76.1,68.0,29.96,East,93,1.1,5.0,70,0.00,NA,NA,-99.99,meteo_script,2013-08-26 21:20:00,
2013-08-26 14:25:00,76.1,67.8,29.96,East,100,1.8,7.0,70,0.00,NA,NA,-99.99,meteo_script,2013-08-26 21:25:00,
2013-08-26 14:30:00,75.6,67.2,29.96,SE,146,2.3,6.0,69,0.00,NA,NA,-99.99,meteo_script,2013-08-26 21:30:00,
2013-08-26 14:35:00,74.4,66.5,29.96,East,94,2.4,5.0,71,0.00,NA,NA,-99.99,meteo_script,2013-08-26 21:35:00,
2013-08-26 14:40:00,73.8,66.4,29.96,East,96,3.0,9.0,72,0.00,NA,NA,-99.99,meteo_script,2013-08-26 21:40:00,
2013-08-26 14:45:00,73.5,66.5,29.95,East,95,3.6,7.0,73,0.00,NA,NA,-99.99,meteo_script,2013-08-26 21:45:00,
2013-08-26 14:50:00,73.3,66.6,29.95,East,101,2.6,4.0,74,0.00,NA,NA,-99.99,meteo_script,2013-08-26 21:50:00,
2013-08-26 14:55:00,73.8,66.5,29.95,East,89,2.2,6.0,73,0.00,NA,NA,-99.99,meteo_script,2013-08-26 21:55:00,
2013-08-26 15:00:00,73.6,66.4,29.95,East,101,2.6,5.0,73,0.00,NA,NA,-99.99,meteo_script,2013-08-26 22:00:00,
2013-08-26 15:05:00,73.5,66.2,29.95,East,86,2.8,5.0,73,0.00,NA,NA,-99.99,meteo_script,2013-08-26 22:05:00,
2013-08-26 15:10:00,73.1,65.6,29.94,East,85,3.7,7.0,72,0.00,NA,NA,-99.99,meteo_script,2013-08-26 22:10:00,
2013-08-26 15:15:00,73.0,65.2,29.94,East,79,4.2,6.0,71,0.00,NA,NA,-99.99,meteo_script,2013-08-26 22:15:00,
2013-08-26 15:20:00,73.6,65.8,29.94,East,83,4.2,6.0,71,0.00,NA,NA,-99.99,meteo_script,2013-08-26 22:20:00,
2013-08-26 15:25:00,74.7,66.3,29.94,East,85,3.7,6.0,69,0.00,NA,NA,-99.99,meteo_script,2013-08-26 22:25:00,
2013-08-26 15:30:00,76.2,66.9,29.94,ENE,72,2.0,5.0,67,0.00,NA,NA,-99.99,meteo_script,2013-08-26 22:30:00,
2013-08-26 15:35:00,77.6,67.3,29.93,ESE,117,1.1,5.0,64,0.00,NA,NA,-99.99,meteo_script,2013-08-26 22:35:00,
2013-08-26 15:40:00,78.0,67.0,29.93,East,84,1.6,9.0,62,0.00,NA,NA,-99.99,meteo_script,2013-08-26 22:40:00,
2013-08-26 15:45:00,77.8,67.0,29.93,ENE,63,1.5,4.0,63,0.00,NA,NA,-99.99,meteo_script,2013-08-26 22:45:00,
2013-08-26 15:50:00,78.0,66.4,29.93,NE,36,0.9,5.0,61,0.00,NA,NA,-99.99,meteo_script,2013-08-26 22:50:00,
2013-08-26 15:55:00,78.2,66.6,29.93,NNE,33,0.9,4.0,61,0.00,NA,NA,-99.99,meteo_script,2013-08-26 22:55:00,
2013-08-26 16:00:00,77.9,66.4,29.93,ENE,62,1.4,4.0,61,0.00,NA,NA,-99.99,meteo_script,2013-08-26 23:00:00,
2013-08-26 16:05:00,77.1,66.7,29.93,ENE,57,1.5,4.0,64,0.00,NA,NA,-99.99,meteo_script,2013-08-26 23:05:00,
2013-08-26 16:10:00,76.4,66.5,29.93,ENE,62,1.1,5.0,65,0.00,NA,NA,-99.99,meteo_script,2013-08-26 23:10:00,
2013-08-26 16:15:00,76.0,66.7,29.92,NE,44,1.8,6.0,67,0.00,NA,NA,-99.99,meteo_script,2013-08-26 23:15:00,
2013-08-26 16:20:00,75.0,66.4,29.92,East,80,1.9,4.0,69,0.00,NA,NA,-99.99,meteo_script,2013-08-26 23:20:00,
2013-08-26 16:25:00,74.5,66.6,29.92,North,0,1.0,1.0,71,0.00,NA,NA,-99.99,meteo_script,2013-08-26 23:25:00,
2013-08-26 16:30:00,75.1,67.0,29.92,ENE,67,0.5,1.0,70,0.00,NA,NA,-99.99,meteo_script,2013-08-26 23:30:00,
2013-08-26 16:35:00,75.5,67.0,29.92,East,81,0.9,5.0,69,0.00,NA,NA,-99.99,meteo_script,2013-08-26 23:35:00,
2013-08-26 16:40:00,75.8,67.3,29.92,East,86,1.3,6.0,69,0.00,NA,NA,-99.99,meteo_script,2013-08-26 23:40:00,
2013-08-26 16:45:00,75.9,66.6,29.92,East,80,2.1,5.0,67,0.00,NA,NA,-99.99,meteo_script,2013-08-26 23:45:00,
2013-08-26 16:50:00,75.0,65.7,29.92,East,79,3.0,5.0,67,0.00,NA,NA,-99.99,meteo_script,2013-08-26 23:50:00,
2013-08-26 16:55:00,74.7,65.4,29.92,East,81,3.2,6.0,67,0.00,NA,NA,-99.99,meteo_script,2013-08-26 23:55:00,
2013-08-26 17:00:00,74.6,65.4,29.91,ENE,78,3.2,7.0,67,0.00,NA,NA,-99.99,meteo_script,2013-08-27 00:00:00,
2013-08-26 17:05:00,75.0,66.1,29.91,North,0,2.3,2.3,68,0.00,NA,NA,-99.99,meteo_script,2013-08-27 00:05:00,
2013-08-26 17:10:00,75.7,66.4,29.92,ENE,63,0.7,1.0,67,0.00,NA,NA,-99.99,meteo_script,2013-08-27 00:10:00,
2013-08-26 17:15:00,76.1,66.8,29.92,ENE,58,0.7,5.0,67,0.00,NA,NA,-99.99,meteo_script,2013-08-27 00:15:00,
2013-08-26 17:20:00,75.9,66.2,29.92,East,79,1.3,4.0,66,0.00,NA,NA,-99.99,meteo_script,2013-08-27 00:20:00,
2013-08-26 17:25:00,75.7,66.3,29.92,ENE,74,1.3,4.0,66,0.00,NA,NA,-99.99,meteo_script,2013-08-27 00:25:00,
2013-08-26 17:30:00,76.1,66.1,29.92,East,88,0.9,5.0,65,0.00,NA,NA,-99.99,meteo_script,2013-08-27 00:30:00,
2013-08-26 17:35:00,76.3,66.2,29.92,SSE,150,1.2,6.0,64,0.00,NA,NA,-99.99,meteo_script,2013-08-27 00:35:00,
2013-08-26 17:40:00,76.1,66.1,29.92,ESE,117,1.3,5.0,65,0.00,NA,NA,-99.99,meteo_script,2013-08-27 00:40:00,
2013-08-26 17:45:00,76.4,66.4,29.92,North,0,0.8,0.8,65,0.00,NA,NA,-99.99,meteo_script,2013-08-27 00:45:00,
2013-08-26 17:50:00,77.0,66.2,29.92,SSE,161,0.6,1.0,63,0.00,NA,NA,-99.99,meteo_script,2013-08-27 00:50:00,
2013-08-26 17:55:00,76.5,65.1,29.91,SE,140,1.5,3.0,61,0.00,NA,NA,-99.99,meteo_script,2013-08-27 00:55:00,
2013-08-26 18:00:00,76.1,64.9,29.91,North,0,1.0,1.0,61,0.00,NA,NA,-99.99,meteo_script,2013-08-27 01:00:00,
2013-08-26 18:05:00,76.4,64.9,29.91,North,0,0.0,0.0,61,0.00,NA,NA,-99.99,meteo_script,2013-08-27 01:05:00,
2013-08-26 18:10:00,76.4,64.6,29.91,North,0,0.0,0.0,60,0.00,NA,NA,-99.99,meteo_script,2013-08-27 01:10:00,
2013-08-26 18:15:00,76.2,64.5,29.91,ENE,73,0.6,4.0,60,0.00,NA,NA,-99.99,meteo_script,2013-08-27 01:15:00,
2013-08-26 18:20:00,75.6,64.2,29.91,NNE,18,1.4,3.0,61,0.00,NA,NA,-99.99,meteo_script,2013-08-27 01:20:00,
2013-08-26 18:25:00,75.5,64.2,29.91,North,0,1.1,1.1,61,0.00,NA,NA,-99.99,meteo_script,2013-08-27 01:25:00,
2013-08-26 18:30:00,74.8,64.2,29.91,North,0,0.3,0.3,63,0.00,NA,NA,-99.99,meteo_script,2013-08-27 01:30:00,
2013-08-26 18:35:00,74.5,63.9,29.91,North,8,0.2,4.0,63,0.00,NA,NA,-99.99,meteo_script,2013-08-27 01:35:00,
2013-08-26 18:40:00,74.3,63.7,29.91,North,0,0.2,0.2,63,0.00,NA,NA,-99.99,meteo_script,2013-08-27 01:40:00,
2013-08-26 18:45:00,74.3,63.8,29.91,North,11,0.1,3.0,63,0.00,NA,NA,-99.99,meteo_script,2013-08-27 01:45:00,
2013-08-26 18:50:00,74.6,64.0,29.91,NE,54,0.6,5.0,63,0.00,NA,NA,-99.99,meteo_script,2013-08-27 01:50:00,
2013-08-26 18:55:00,74.3,63.7,29.91,North,0,1.0,1.0,63,0.00,NA,NA,-99.99,meteo_script,2013-08-27 01:55:00,
2013-08-26 19:00:00,73.7,63.1,29.90,North,0,0.7,0.7,63,0.00,NA,NA,-99.99,meteo_script,2013-08-27 02:00:00,
2013-08-26 19:05:00,73.5,63.6,29.90,North,0,0.2,0.2,64,0.00,NA,NA,-99.99,meteo_script,2013-08-27 02:05:00,
2013-08-26 19:10:00,73.5,63.7,29.91,North,0,0.0,0.0,65,0.00,NA,NA,-99.99,meteo_script,2013-08-27 02:10:00,
2013-08-26 19:15:00,73.6,63.5,29.91,SSE,149,0.8,4.0,64,0.00,NA,NA,-99.99,meteo_script,2013-08-27 02:15:00,
2013-08-26 19:20:00,73.5,63.5,29.91,North,0,0.8,0.8,64,0.00,NA,NA,-99.99,meteo_script,2013-08-27 02:20:00,
2013-08-26 19:25:00,73.6,63.7,29.91,North,0,0.0,0.0,65,0.00,NA,NA,-99.99,meteo_script,2013-08-27 02:25:00,
2013-08-26 19:30:00,73.8,63.9,29.92,North,0,0.0,0.0,65,0.00,NA,NA,-99.99,meteo_script,2013-08-27 02:30:00,
2013-08-26 19:35:00,73.6,63.7,29.92,SE,136,0.1,3.0,65,0.00,NA,NA,-99.99,meteo_script,2013-08-27 02:35:00,
2013-08-26 19:40:00,73.0,63.5,29.92,North,0,0.1,0.1,66,0.00,NA,NA,-99.99,meteo_script,2013-08-27 02:40:00,
2013-08-26 19:45:00,72.7,63.9,29.92,North,0,0.0,0.0,68,0.00,NA,NA,-99.99,meteo_script,2013-08-27 02:45:00,
2013-08-26 19:50:00,72.9,64.1,29.92,North,0,0.0,0.0,68,0.00,NA,NA,-99.99,meteo_script,2013-08-27 02:50:00,
2013-08-26 19:55:00,72.9,64.1,29.92,North,0,0.0,0.0,68,0.00,NA,NA,-99.99,meteo_script,2013-08-27 02:55:00,
2013-08-26 20:00:00,72.4,63.9,29.92,North,0,0.0,0.0,68,0.00,NA,NA,-99.99,meteo_script,2013-08-27 03:00:00,
2013-08-26 20:05:00,72.3,64.2,29.92,North,0,0.0,0.0,70,0.00,NA,NA,-99.99,meteo_script,2013-08-27 03:05:00,
2013-08-26 20:10:00,72.3,64.3,29.92,North,0,0.0,0.0,70,0.00,NA,NA,-99.99,meteo_script,2013-08-27 03:10:00,
2013-08-26 20:15:00,72.1,64.0,29.92,North,0,0.0,0.0,70,0.00,NA,NA,-99.99,meteo_script,2013-08-27 03:15:00,
2013-08-26 20:20:00,71.8,64.0,29.93,North,0,0.1,0.1,71,0.00,NA,NA,-99.99,meteo_script,2013-08-27 03:20:00,
2013-08-26 20:25:00,71.8,64.3,29.93,NNE,26,0.3,1.0,72,0.00,NA,NA,-99.99,meteo_script,2013-08-27 03:25:00,
2013-08-26 20:30:00,71.6,64.1,29.93,North,0,0.5,0.5,72,0.00,NA,NA,-99.99,meteo_script,2013-08-27 03:30:00,
2013-08-26 20:35:00,71.4,63.9,29.93,North,0,0.3,0.3,72,0.00,NA,NA,-99.99,meteo_script,2013-08-27 03:35:00,
2013-08-26 20:40:00,71.1,63.8,29.93,North,0,0.0,0.0,72,0.00,NA,NA,-99.99,meteo_script,2013-08-27 03:40:00,
2013-08-26 20:45:00,71.1,64.3,29.93,North,0,0.0,0.0,74,0.00,NA,NA,-99.99,meteo_script,2013-08-27 03:45:00,
2013-08-26 20:50:00,71.4,64.5,29.93,North,0,0.0,0.0,73,0.00,NA,NA,-99.99,meteo_script,2013-08-27 03:50:00,
2013-08-26 20:55:00,71.2,64.1,29.93,North,0,0.0,0.0,73,0.00,NA,NA,-99.99,meteo_script,2013-08-27 03:55:00,
2013-08-26 21:00:00,70.9,64.1,29.93,North,0,0.1,0.1,74,0.00,NA,NA,-99.99,meteo_script,2013-08-27 04:00:00,
2013-08-26 21:01:00,70.8,64.0,29.93,North,0,0.1,0.1,74,0.00,NA,NA,-99.99,meteo_script,2013-08-27 04:01:00,
2013-08-26 21:02:00,70.7,63.9,29.93,North,0,0.1,0.1,74,0.00,NA,NA,-99.99,meteo_script,2013-08-27 04:02:00,
2013-08-26 21:03:00,70.9,64.0,29.93,North,0,0.1,0.1,74,0.00,NA,NA,-99.99,meteo_script,2013-08-27 04:03:00,
2013-08-26 21:08:00,71.4,64.6,29.93,North,0,0.0,0.0,74,0.00,NA,NA,-99.99,meteo_script,2013-08-27 04:08:00,
2013-08-26 21:11:00,71.6,64.7,29.93,North,0,0.0,0.0,74,0.00,NA,NA,-99.99,meteo_script,2013-08-27 04:11:00,
2013-08-26 21:16:00,71.4,64.2,29.93,North,0,0.0,0.0,73,0.00,NA,NA,-99.99,meteo_script,2013-08-27 04:16:00,
2013-08-26 21:21:00,71.2,64.1,29.93,North,0,0.0,0.0,73,0.00,NA,NA,-99.99,meteo_script,2013-08-27 04:21:00,
2013-08-26 21:26:00,71.6,64.4,29.93,North,0,0.0,0.0,73,0.00,NA,NA,-99.99,meteo_script,2013-08-27 04:26:00,
2013-08-26 21:31:00,72.1,64.8,29.93,North,0,0.0,0.0,72,0.00,NA,NA,-99.99,meteo_script,2013-08-27 04:31:00,
2013-08-26 21:36:00,72.0,64.8,29.93,North,0,0.0,0.0,73,0.00,NA,NA,-99.99,meteo_script,2013-08-27 04:36:00,
2013-08-26 21:41:00,71.6,64.4,29.93,North,0,0.0,0.0,73,0.00,NA,NA,-99.99,meteo_script,2013-08-27 04:41:00,
2013-08-26 21:46:00,71.7,64.9,29.93,North,0,0.0,0.0,74,0.00,NA,NA,-99.99,meteo_script,2013-08-27 04:46:00,
2013-08-26 21:51:00,72.1,65.0,29.93,North,0,0.0,0.0,73,0.00,NA,NA,-99.99,meteo_script,2013-08-27 04:51:00,
2013-08-26 21:56:00,71.7,64.5,29.93,NNE,16,0.1,3.0,73,0.00,NA,NA,-99.99,meteo_script,2013-08-27 04:56:00,
2013-08-26 22:01:00,71.2,64.3,29.93,North,0,0.1,0.1,73,0.00,NA,NA,-99.99,meteo_script,2013-08-27 05:01:00,
2013-08-26 22:06:00,71.2,64.4,29.94,North,0,0.0,0.0,74,0.00,NA,NA,-99.99,meteo_script,2013-08-27 05:06:00,
2013-08-26 22:11:00,71.1,64.3,29.93,NNE,19,0.1,2.0,74,0.00,NA,NA,-99.99,meteo_script,2013-08-27 05:11:00,
2013-08-26 22:16:00,70.8,64.1,29.93,NNE,27,0.5,4.0,74,0.00,NA,NA,-99.99,meteo_script,2013-08-27 05:16:00,
2013-08-26 22:21:00,70.4,64.0,29.93,NE,53,1.2,4.0,75,0.00,NA,NA,-99.99,meteo_script,2013-08-27 05:21:00,
2013-08-26 22:26:00,70.5,64.4,29.93,North,0,0.8,0.8,76,0.00,NA,NA,-99.99,meteo_script,2013-08-27 05:26:00,
2013-08-26 22:31:00,70.7,64.5,29.93,North,0,0.0,0.0,76,0.00,NA,NA,-99.99,meteo_script,2013-08-27 05:31:00,
2013-08-26 22:36:00,70.5,64.4,29.93,North,0,0.0,0.0,76,0.00,NA,NA,-99.99,meteo_script,2013-08-27 05:36:00,
2013-08-26 22:41:00,70.2,64.3,29.93,North,0,0.0,0.0,77,0.00,NA,NA,-99.99,meteo_script,2013-08-27 05:41:00,
2013-08-26 22:46:00,70.4,64.8,29.93,North,0,0.2,0.2,78,0.00,NA,NA,-99.99,meteo_script,2013-08-27 05:46:00,
2013-08-26 22:51:00,70.2,64.4,29.93,North,0,0.2,0.2,77,0.00,NA,NA,-99.99,meteo_script,2013-08-27 05:51:00,
2013-08-26 22:56:00,70.1,64.5,29.93,NNE,30,0.3,4.0,78,0.00,NA,NA,-99.99,meteo_script,2013-08-27 05:56:00,
2013-08-26 23:01:00,69.8,64.4,29.94,NE,38,0.4,1.0,78,0.00,NA,NA,-99.99,meteo_script,2013-08-27 06:01:00,
2013-08-26 23:06:00,70.0,64.9,29.93,North,0,0.2,0.2,80,0.00,NA,NA,-99.99,meteo_script,2013-08-27 06:06:00,
2013-08-26 23:11:00,70.2,65.1,29.93,North,0,0.0,0.0,80,0.00,NA,NA,-99.99,meteo_script,2013-08-27 06:11:00,
2013-08-26 23:16:00,69.9,64.7,29.93,North,0,0.0,0.0,79,0.00,NA,NA,-99.99,meteo_script,2013-08-27 06:16:00,
2013-08-26 23:21:00,69.7,64.8,29.93,North,0,0.0,0.0,80,0.00,NA,NA,-99.99,meteo_script,2013-08-27 06:21:00,
2013-08-26 23:26:00,69.9,65.2,29.93,North,0,0.0,0.0,81,0.00,NA,NA,-99.99,meteo_script,2013-08-27 06:26:00,
2013-08-26 23:31:00,70.1,65.1,29.93,North,0,0.0,0.0,80,0.00,NA,NA,-99.99,meteo_script,2013-08-27 06:31:00,
2013-08-26 23:36:00,70.0,65.1,29.93,North,0,0.0,0.0,80,0.00,NA,NA,-99.99,meteo_script,2013-08-27 06:36:00,
2013-08-26 23:41:00,69.6,64.5,29.93,North,0,0.0,0.0,80,0.00,NA,NA,-99.99,meteo_script,2013-08-27 06:41:00,
2013-08-26 23:46:00,69.3,64.6,29.93,North,0,0.0,0.0,81,0.00,NA,NA,-99.99,meteo_script,2013-08-27 06:46:00,
2013-08-26 23:51:00,69.0,64.5,29.93,NE,39,0.1,2.0,82,0.00,NA,NA,-99.99,meteo_script,2013-08-27 06:51:00,
2013-08-26 23:56:00,68.8,64.4,29.92,North,0,0.4,0.4,82,0.00,NA,NA,-99.99,meteo_script,2013-08-27 06:56:00,